Location: Unspecified
(38.0989°N, 0.6729°W)
Time: 06:13:55
(UTC+02:00)

Amateur Radio Satellites - All Passes

Search period start: 01 May 2017 05:43
Search period end: 02 May 2017 05:43
Location: Unspecified, 38.0989°N, 0.6729°W

Satellite Date Start Highest point End Downlink Frequencies (MHz)
Time Altitude Azimuth
STARS 01 May 05:46:27 05:50:16 29° 70° (ENE) 05:54:04 437.465
ITUPSAT 1 01 May 05:47:31 05:48:23 10° 270° (W) 05:49:15 437.325
MOZHAYETS 4 01 May 05:50:40 05:53:49 18° 267° (W) 05:56:59
AO-7 01 May 05:57:54 06:06:16 89° 289° (WNW) 06:14:37 .
SO-50 01 May 06:01:52 06:06:00 33° 114° (ESE) 06:10:06 436.795
ITAMSAT 1 01 May 06:02:34 06:07:31 47° 289° (WNW) 06:12:27 435.822/435.867
RS-15 01 May 06:06:00 06:13:44 20° 98° (E) 06:21:34 29.354- 29.394
YUBILEINY 01 May 06:53:25 07:00:56 32° 288° (WNW) 07:08:31 435.215
CUBESAT XI-V 01 May 06:53:33 06:57:17 24° 265° (W) 07:01:04 437.345
XW-2D 01 May 07:03:48 07:04:06 10° 91° (E) 07:04:23 145.860 - 145.880
KKS-1 01 May 07:05:42 07:08:25 16° 267° (W) 07:11:09 437.445
DOVE 4 01 May 07:08:23 07:11:52 22° 94° (E) 07:15:12 437.250
XW-2B 01 May 07:09:42 07:11:14 12° 92° (E) 07:12:45 145.730 - 145.750
XW-2C 01 May 07:20:55 07:23:29 17° 94° (E) 07:26:04 145.795 - 145.815
STARS 01 May 07:23:05 07:26:34 23° 265° (W) 07:30:03 437.465
ISS 01 May 07:24:33 07:27:30 32° 134° (SE) 07:30:28 437.550
LilacSat-2 01 May 07:25:03 07:28:00 20° 95° (E) 07:30:55 437.200
NUDT-PHONESAT 01 May 07:39:16 07:42:13 22° 95° (E) 07:45:10 437.300
XW-2F 01 May 07:42:06 07:45:30 30° 97° (E) 07:48:53 145.980 - 146.000
SO-50 01 May 07:42:33 07:46:27 27° 310° (NW) 07:50:21 436.795
CUTE-I 01 May 07:44:25 07:49:09 32° 97° (E) 07:53:51 437.470
STRAND 1 01 May 07:45:22 07:49:30 26° 67° (ENE) 07:53:39 437.568
AO-7 01 May 07:52:26 07:57:55 20° 307° (NW) 08:03:25 .
HO-68 01 May 07:54:17 07:56:01 11° 88° (E) 07:57:45 435.675
Tancredo 1 01 May 08:01:46 08:04:50 66° 323° (NW) 08:07:54 437.200
RS-15 01 May 08:12:17 08:24:18 85° 118° (ESE) 08:36:44 29.354- 29.394
M-CUBED/EXP-1 PRIME 01 May 08:23:07 08:27:41 62° 70° (ENE) 08:32:18 437.505
XW-2D 01 May 08:34:50 08:38:31 48° 285° (WNW) 08:42:13 145.860 - 145.880
KAITUO 1B 01 May 08:39:49 08:43:32 54° 285° (WNW) 08:47:14 145.475/437.950
XW-2B 01 May 08:41:59 08:45:35 40° 286° (WNW) 08:49:11 145.730 - 145.750
DOVE 4 01 May 08:45:45 08:49:34 28° 291° (WNW) 08:53:12 437.250
XW-2C 01 May 08:54:23 08:57:41 28° 288° (WNW) 09:01:00 145.795 - 145.815
LilacSat-2 01 May 08:59:03 09:02:12 24° 289° (WNW) 09:05:21 437.200
ISS 01 May 09:01:11 09:04:00 26° 330° (NNW) 09:06:49 437.550
NUDT-PHONESAT 01 May 09:13:08 09:16:00 21° 290° (WNW) 09:18:53 437.300
XW-2F 01 May 09:16:55 09:19:22 17° 292° (WNW) 09:21:51 145.980 - 146.000
AAUSAT CUBESAT 2 01 May 09:17:05 09:19:33 15° 92° (E) 09:22:02 437.432
STRAND 1 01 May 09:23:52 09:28:29 35° 262° (W) 09:33:08 437.568
CUTE-I 01 May 09:24:32 09:29:04 29° 293° (WNW) 09:33:36 437.470
HO-68 01 May 09:37:30 09:44:44 77° 104° (ESE) 09:51:56 435.675
XW-2A 01 May 09:39:15 09:42:36 66° 283° (WNW) 09:45:57 145.665 - 145.685
Tancredo 1 01 May 09:39:49 09:41:12 12° 340° (NNW) 09:42:36 437.200
UWE-3 01 May 09:44:08 09:47:49 28° 97° (E) 09:51:35 435.000/436.395/437.385
CUTE 1.7 + AOD 2 01 May 09:47:16 09:51:32 65° 284° (WNW) 09:55:47 437.475
SEEDS 01 May 09:57:52 10:02:08 78° 283° (WNW) 10:06:22 437.485
M-CUBED/EXP-1 PRIME 01 May 10:00:13 10:02:24 13° 264° (W) 10:04:36 437.505
PRISM 01 May 10:06:23 10:09:25 20° 68° (ENE) 10:12:27 437.425
CUBEBUG 2 01 May 10:07:17 10:11:30 88° 283° (WNW) 10:15:48 437.445
TIGRISAT 01 May 10:11:54 10:13:55 13° 65° (ENE) 10:15:57 435.000
O/OREOS (USA 219) 01 May 10:18:16 10:22:32 40° 105° (ESE) 10:26:50 437.305
RS-15 01 May 10:27:48 10:38:25 33° 323° (NW) 10:49:15 29.354- 29.394
ZACube-1 01 May 10:28:04 10:32:15 52° 100° (E) 10:36:30 437.345
PCSat 01 May 10:30:38 10:33:47 15° 45° (NE) 10:36:54 145.827
AO-73 01 May 10:31:58 10:36:09 52° 100° (E) 10:40:24 145.935
UNISAT 6 01 May 10:32:56 10:36:28 25° 70° (ENE) 10:39:57 437.425
Oscar 11 01 May 10:41:33 10:45:50 55° 100° (E) 10:50:06 .
FO-29 01 May 10:41:57 10:47:13 32° 69° (ENE) 10:52:01 435.910
AAUSAT CUBESAT 2 01 May 10:51:15 10:55:09 38° 287° (WNW) 10:59:02 437.432
DELFI C3 01 May 10:51:38 10:54:23 18° 94° (E) 10:57:09 145.870
UWE-3 01 May 11:20:51 11:24:08 22° 291° (WNW) 11:27:26 435.000/436.395/437.385
HO-68 01 May 11:26:44 11:31:40 20° 302° (WNW) 11:36:36 435.675
PRISM 01 May 11:40:47 11:44:28 31° 262° (W) 11:48:11 437.425
AO-85 01 May 11:42:52 11:45:39 17° 111° (ESE) 11:48:21 145.980
AIST 2D 01 May 11:44:30 11:46:33 15° 69° (ENE) 11:48:35 435.315
TIGRISAT 01 May 11:45:57 11:50:10 51° 260° (W) 11:54:22 435.000
OBJECT BX 01 May 11:52:38 11:56:19 80° 102° (ESE) 11:59:59 145.990 - 145.960
O/OREOS (USA 219) 01 May 11:58:45 12:02:05 19° 302° (WNW) 12:05:27 437.305
ZACube-1 01 May 12:06:07 12:08:06 13° 294° (WNW) 12:10:05 437.345
UNISAT 6 01 May 12:09:26 12:13:04 26° 264° (W) 12:16:41 437.425
AO-73 01 May 12:09:57 12:11:57 13° 294° (WNW) 12:13:57 145.935
PCSat 01 May 12:12:25 12:17:53 85° 244° (WSW) 12:23:17 145.827
DUCHIFAT 1 01 May 12:13:01 12:15:48 18° 67° (ENE) 12:18:35 145.980
EO-79 01 May 12:16:24 12:19:45 23° 69° (ENE) 12:23:07 145.935-145.965
Oscar 11 01 May 12:19:31 12:21:28 13° 295° (WNW) 12:23:25 .
DELFI C3 01 May 12:25:42 12:29:12 30° 289° (WNW) 12:32:40 145.870
FO-29 01 May 12:26:45 12:32:14 33° 262° (W) 12:37:15 435.910
LO-87 01 May 12:40:08 12:43:25 34° 98° (E) 12:46:39 145.935 - 145.965
RS-15 01 May 12:48:52 12:56:37 18° 358° (N) 13:04:19 29.354- 29.394
ESTCUBE 1 01 May 12:51:10 12:55:02 27° 96° (E) 12:58:53 437.505/2401.250
Tancredo 1 01 May 12:53:53 12:55:21 13° 21° (NNE) 12:56:48 437.200
BUGSAT 1 01 May 12:54:48 12:57:20 16° 67° (ENE) 12:59:51 437.445
POLYITAN 1 01 May 12:56:14 13:00:24 70° 76° (ENE) 13:04:36 437.675
QB50P2 01 May 13:03:06 13:07:19 89° 247° (WSW) 13:11:33 145.880/145.840
AIST 2D 01 May 13:16:32 13:19:30 26° 263° (W) 13:22:30 435.315
NANOSAT C BR1 01 May 13:19:57 13:24:06 67° 259° (WSW) 13:28:18 145.865
AO-85 01 May 13:21:44 13:25:47 40° 305° (NW) 13:29:37 145.980
DUCHIFAT 1 01 May 13:47:21 13:51:11 35° 262° (W) 13:55:02 145.980
EO-79 01 May 13:51:51 13:55:23 26° 264° (W) 13:58:55 145.935-145.965
ISS 01 May 13:53:48 13:56:36 26° 30° (NNE) 13:59:24 437.550
Oscar 19 01 May 14:02:57 14:07:34 35° 69° (ENE) 14:12:14 437.125/150
BEESAT 3 01 May 14:06:30 14:10:24 66° 303° (WNW) 14:14:23 437.485
UKube-1 01 May 14:11:54 14:13:51 13° 92° (E) 14:15:47 .
50 SAT 01 May 14:13:56 14:17:02 29° 97° (E) 14:20:05 437.505
LO-87 01 May 14:14:57 14:16:30 12° 293° (WNW) 14:18:03 145.935 - 145.965
BEESAT 2 01 May 14:17:00 14:20:51 55° 117° (ESE) 14:24:47 435.950
VELOX 1 01 May 14:18:14 14:22:38 67° 101° (ESE) 14:27:00 145.980
ESTCUBE 1 01 May 14:27:57 14:31:43 26° 291° (WNW) 14:35:28 437.505/2401.250
BUGSAT 1 01 May 14:28:32 14:32:23 37° 262° (W) 14:36:12 437.445
Tancredo 1 01 May 14:28:36 14:31:42 70° 38° (NE) 14:34:46 437.200
SO-50 01 May 14:34:48 14:38:13 21° 47° (NE) 14:41:37 436.795
SPROUT 01 May 14:42:16 14:46:29 65° 285° (WNW) 14:50:40 437.525
Gurwin Techsat 1B 01 May 14:44:43 14:49:51 51° 72° (ENE) 14:54:59 435.225
DX 1 01 May 14:53:23 14:57:41 59° 101° (E) 15:01:58 434.975-435.025
RS-15 01 May 15:04:43 15:15:06 30° 33° (NNE) 15:25:06 29.354- 29.394
AO-7 01 May 15:05:05 15:11:09 23° 55° (NE) 15:17:13 .
YUBILEINY 01 May 15:08:25 15:15:04 23° 67° (ENE) 15:21:41 435.215
ISS 01 May 15:30:09 15:33:07 33° 226° (SW) 15:36:04 437.550
ITAMSAT 1 01 May 15:40:28 15:44:41 26° 66° (ENE) 15:48:52 435.822/435.867
Oscar 19 01 May 15:42:37 15:46:53 26° 265° (W) 15:51:12 437.125/150
UKube-1 01 May 15:45:57 15:50:07 49° 287° (WNW) 15:54:16 .
50 SAT 01 May 15:47:51 15:49:40 14° 292° (WNW) 15:51:28 437.505
BEESAT 2 01 May 15:56:46 15:58:57 14° 315° (NW) 16:01:11 435.950
VELOX 1 01 May 15:57:15 15:58:29 11° 297° (WNW) 15:59:44 145.980
ITUPSAT 1 01 May 16:08:17 16:11:50 20° 94° (E) 16:15:22 437.325
SO-50 01 May 16:14:35 16:18:51 44° 244° (WSW) 16:23:08 436.795
Gurwin Techsat 1B 01 May 16:26:27 16:30:02 18° 267° (W) 16:33:39 435.225
DX 1 01 May 16:31:38 16:33:20 12° 297° (WNW) 16:35:02 434.975-435.025
AO-7 01 May 16:54:45 17:03:02 78° 253° (WSW) 17:11:22 .
BEESAT 01 May 17:00:49 17:05:37 76° 103° (ESE) 17:10:22 436.000
YUBILEINY 01 May 17:03:54 17:12:38 72° 267° (W) 17:21:23 435.215
RS-15 01 May 17:17:17 17:29:36 86° 60° (ENE) 17:41:14 29.354- 29.394
ITAMSAT 1 01 May 17:19:11 17:23:56 36° 262° (W) 17:28:41 435.822/435.867
ITUPSAT 1 01 May 17:45:20 17:49:45 38° 289° (WNW) 17:54:09 437.325
MOZHAYETS 4 01 May 17:45:25 17:50:01 71° 285° (WNW) 17:54:37
JUGNU 01 May 17:59:55 18:02:13 12° 179° (S) 18:04:31 437.505
DOVE 4 01 May 18:11:18 18:15:26 24° 68° (ENE) 18:19:29 437.250
XW-2F 01 May 18:23:13 18:24:40 12° 66° (ENE) 18:26:08 145.980 - 146.000
BEESAT 01 May 18:41:15 18:42:42 11° 299° (WNW) 18:44:10 436.000
NO-84 01 May 18:45:09 18:49:00 50° 131° (SE) 18:52:33 435.350 FM
CUBESAT XI-V 01 May 18:50:28 18:55:12 85° 283° (WNW) 18:59:53 437.345
AO-7 01 May 18:53:31 18:56:56 13° 270° (W) 19:00:21 .
KKS-1 01 May 18:56:04 19:00:30 74° 285° (WNW) 19:04:53 437.445
CUTE-I 01 May 19:04:27 19:09:30 45° 71° (ENE) 19:14:34 437.470
YUBILEINY 01 May 19:05:24 19:07:44 11° 285° (WNW) 19:10:04 435.215
STARS 01 May 19:12:47 19:17:09 71° 102° (ESE) 19:21:28 437.465
XW-2D 01 May 19:14:00 19:17:39 57° 76° (ENE) 19:21:22 145.860 - 145.880
KAITUO 1B 01 May 19:17:54 19:21:26 48° 75° (ENE) 19:25:02 145.475/437.950
XW-2B 01 May 19:21:03 19:24:45 69° 76° (ENE) 19:28:29 145.730 - 145.750
RS-15 01 May 19:31:53 19:40:23 23° 260° (W) 19:48:41 29.354- 29.394
SRMSAT 01 May 19:33:12 19:34:58 11° 172° (S) 19:36:44 437.500
XW-2C 01 May 19:33:13 19:36:56 79° 260° (W) 19:40:42 145.795 - 145.815
LilacSat-2 01 May 19:38:21 19:42:03 63° 259° (W) 19:45:49 437.200
DOVE 4 01 May 19:47:54 19:52:50 40° 262° (W) 19:57:41 437.250
JUGNU 01 May 19:49:41 19:50:19 10° 189° (S) 19:50:57 437.505
NUDT-PHONESAT 01 May 19:49:46 19:53:23 60° 260° (W) 19:57:01 437.300
XW-2F 01 May 19:54:53 19:58:24 41° 261° (W) 20:01:57 145.980 - 146.000
HO-68 01 May 20:04:07 20:10:53 48° 67° (ENE) 20:17:41 435.675
XW-2A 01 May 20:09:09 20:11:59 26° 72° (ENE) 20:14:50 145.665 - 145.685
AO-85 01 May 20:16:15 20:16:52 10° 43° (NE) 20:17:29 145.980
NO-84 01 May 20:23:53 20:26:42 20° 326° (NW) 20:29:21 435.350 FM
O/OREOS (USA 219) 01 May 20:29:40 20:34:12 58° 67° (ENE) 20:38:39 437.305
CUTE 1.7 + AOD 2 01 May 20:37:45 20:41:55 68° 77° (ENE) 20:46:10 437.475
UWE-3 01 May 20:40:14 20:43:12 19° 68° (ENE) 20:46:08 435.000/436.395/437.385
CUTE-I 01 May 20:45:47 20:49:43 21° 266° (W) 20:53:40 437.470
SEEDS 01 May 20:47:25 20:51:31 55° 74° (ENE) 20:55:39 437.485
STARS 01 May 20:52:23 20:52:51 10° 298° (WNW) 20:53:20 437.465
CUBEBUG 2 01 May 21:03:28 21:07:43 60° 75° (ENE) 21:11:52 437.445
SRMSAT 01 May 21:20:46 21:23:14 13° 183° (S) 21:25:43 437.500
ZACube-1 01 May 21:22:28 21:26:08 31° 71° (ENE) 21:29:49 437.345
AO-73 01 May 21:26:04 21:29:43 31° 71° (ENE) 21:33:22 145.935
Oscar 11 01 May 21:34:40 21:38:31 33° 71° (ENE) 21:42:24 .
STRAND 1 01 May 21:35:18 21:40:26 90° 101° (E) 21:45:33 437.568
M-CUBED/EXP-1 PRIME 01 May 21:38:26 21:42:20 54° 105° (ESE) 21:45:54 437.505
AAUSAT CUBESAT 2 01 May 21:38:53 21:43:01 77° 257° (WSW) 21:47:13 437.432
XW-2A 01 May 21:43:04 21:44:46 13° 266° (W) 21:46:29 145.665 - 145.685
HO-68 01 May 21:52:37 21:58:44 30° 264° (W) 22:04:55 435.675
AO-85 01 May 21:53:44 21:57:44 84° 243° (WSW) 22:01:57 145.980
O/OREOS (USA 219) 01 May 22:11:23 22:13:00 12° 263° (W) 22:14:38 437.305
UWE-3 01 May 22:15:39 22:19:26 32° 263° (W) 22:23:11 435.000/436.395/437.385
BEESAT 3 01 May 22:24:49 22:28:36 39° 54° (NE) 22:32:21 437.485
SEEDS 01 May 22:26:34 22:27:31 11° 270° (W) 22:28:30 437.485
OBJECT BX 01 May 22:29:07 22:32:07 25° 71° (ENE) 22:35:08 145.990 - 145.960
BEESAT 2 01 May 22:36:35 22:39:45 21° 49° (NE) 22:42:53 435.950
ZACube-1 01 May 22:59:34 23:02:28 18° 266° (W) 23:05:22 437.345
AO-73 01 May 23:03:05 23:05:59 18° 266° (W) 23:08:54 145.935
DELFI C3 01 May 23:08:30 23:12:28 69° 259° (W) 23:16:28 145.870
Oscar 11 01 May 23:11:40 23:14:43 19° 266° (W) 23:17:46 .
M-CUBED/EXP-1 PRIME 01 May 23:14:56 23:16:10 11° 303° (WNW) 23:17:24 437.505
LO-87 01 May 23:16:18 23:17:45 12° 67° (ENE) 23:19:15 145.935 - 145.965
STRAND 1 01 May 23:17:48 23:18:49 11° 300° (WNW) 23:19:51 437.568
PRISM 01 May 23:23:18 23:27:09 37° 98° (E) 23:30:57 437.425
FO-29 01 May 23:36:15 23:40:56 30° 97° (E) 23:45:58 435.910
TIGRISAT 01 May 23:38:47 23:42:44 34° 98° (E) 23:46:44 435.000
ESTCUBE 1 01 May 23:49:24 23:52:47 21° 67° (ENE) 23:56:11 437.505/2401.250
UNISAT 6 02 May 00:01:27 00:05:46 69° 102° (ESE) 00:10:09 437.425
OBJECT BX 02 May 00:03:18 00:05:46 17° 266° (W) 00:08:15 145.990 - 145.960
BEESAT 3 02 May 00:03:22 00:05:51 16° 250° (WSW) 00:08:19 437.485
BEESAT 2 02 May 00:13:54 00:17:34 33° 246° (WSW) 00:21:10 435.950
AIST 2D 02 May 00:43:04 00:45:53 22° 96° (E) 00:48:42 435.315
POLYITAN 1 02 May 00:44:28 00:46:17 12° 92° (E) 00:48:06 437.675
LO-87 02 May 00:47:26 00:50:50 38° 262° (W) 00:54:14 145.935 - 145.965
QB50P2 02 May 00:50:38 00:53:20 16° 93° (E) 00:56:01 145.880/145.840
PRISM 02 May 00:59:31 01:02:06 16° 294° (WNW) 01:04:40 437.425
NANOSAT C BR1 02 May 01:06:26 01:09:37 21° 95° (E) 01:12:47 145.865
PCSat 02 May 01:11:40 01:14:43 15° 104° (ESE) 01:17:46 145.827
VELOX 1 02 May 01:13:30 01:17:46 47° 73° (ENE) 01:22:02 145.980
TIGRISAT 02 May 01:16:06 01:19:11 19° 292° (WNW) 01:22:18 435.000
FO-29 02 May 01:21:20 01:26:01 32° 291° (WNW) 01:31:00 435.910
NO-84 02 May 01:21:47 01:23:30 14° 30° (NNE) 01:25:11 435.350 FM
ESTCUBE 1 02 May 01:25:16 01:29:20 34° 262° (W) 01:33:28 437.505/2401.250
DUCHIFAT 1 02 May 01:32:33 01:36:26 37° 98° (E) 01:40:19 145.980
SPROUT 02 May 01:33:26 01:37:40 74° 76° (ENE) 01:41:56 437.525
EO-79 02 May 01:37:11 01:41:18 53° 100° (E) 01:45:24 145.935-145.965
UNISAT 6 02 May 01:41:23 01:41:54 10° 297° (WNW) 01:42:26 437.425
DX 1 02 May 01:47:02 01:51:08 41° 72° (ENE) 01:55:15 434.975-435.025
BUGSAT 1 02 May 02:11:42 02:15:17 31° 97° (E) 02:18:51 437.445
AIST 2D 02 May 02:16:25 02:18:57 19° 290° (WNW) 02:21:28 435.315
50 SAT 02 May 02:17:08 02:20:29 46° 260° (W) 02:23:53 437.505
Oscar 19 02 May 02:17:40 02:20:09 13° 91° (E) 02:22:38 437.125/150
POLYITAN 1 02 May 02:18:15 02:22:18 48° 287° (WNW) 02:26:21 437.675
QB50P2 02 May 02:25:22 02:29:14 36° 288° (WNW) 02:33:05 145.880/145.840
UKube-1 02 May 02:38:08 02:42:27 75° 258° (WSW) 02:46:48 .
NANOSAT C BR1 02 May 02:41:42 02:45:19 29° 289° (WNW) 02:48:55 145.865
VELOX 1 02 May 02:51:59 02:54:26 14° 268° (W) 02:56:52 145.980
PCSat 02 May 02:52:07 02:57:29 65° 300° (WNW) 03:02:54 145.827
NO-84 02 May 02:58:25 03:01:13 45° 229° (SW) 03:03:57 435.350 FM
Gurwin Techsat 1B 02 May 03:03:14 03:07:23 23° 94° (E) 03:11:30 435.225
DUCHIFAT 1 02 May 03:09:08 03:11:47 17° 293° (WNW) 03:14:26 145.980
ITUPSAT 1 02 May 03:13:41 03:17:10 21° 66° (ENE) 03:20:39 437.325
EO-79 02 May 03:14:52 03:16:34 12° 295° (WNW) 03:18:17 145.935-145.965
DX 1 02 May 03:24:45 03:27:28 16° 267° (W) 03:30:12 434.975-435.025
BUGSAT 1 02 May 03:47:39 03:50:24 18° 292° (WNW) 03:53:09 437.445
Oscar 19 02 May 03:54:43 03:59:53 66° 286° (WNW) 04:05:01 437.125/150
BEESAT 02 May 04:05:19 04:10:02 72° 74° (ENE) 04:14:46 436.000
YUBILEINY 02 May 04:07:56 04:14:50 27° 83° (E) 04:21:45 435.215
PCSat 02 May 04:40:34 04:41:57 11° 319° (NW) 04:43:20 145.827
Gurwin Techsat 1B 02 May 04:42:28 04:47:26 41° 290° (WNW) 04:52:22 435.225
MOZHAYETS 4 02 May 04:45:14 04:49:47 89° 74° (ENE) 04:54:22
ITUPSAT 1 02 May 04:50:17 04:54:42 39° 261° (W) 04:59:09 437.325
AO-7 02 May 04:58:29 05:06:10 40° 100° (E) 05:13:48 .
ITAMSAT 1 02 May 05:33:02 05:38:15 90° 121° (ESE) 05:43:26 435.822/435.867
RS-15 02 May 05:33:43 05:38:23 13° 94° (E) 05:43:05 29.354- 29.394
